Weather History for Madison, SD

Change the Weather History Date:

Tuesday, January 28, 2014

  Actual Average Record
Temperature  
Mean Temperature -2 °F -  
Max Temperature 5 °F 22 °F 42 °F (2015)
Min Temperature -9 °F 3 °F -9 °F (2014)
Degree Days  
Heating Degree Days 67    
Moisture  
Dew Point -9 °F    
Average Humidity 73    
Maximum Humidity 84    
Minimum Humidity 56    
Precipitation  
Precipitation 0.00 in - - ()
Sea Level Pressure  
Sea Level Pressure 30.23 in    
Wind  
Wind Speed 10 mph (West)    
Max Wind Speed 17 mph    
Max Gust Speed 21 mph    
Visibility 10 miles    
Events      
Averages and records for this station are not official NWS values.
T = Trace of Precipitation, MM = Missing Value Source: NWS Daily Summary

Daily Weather History Graph

Daily Weather History Graph

Search for Another Location

Airport:

Trip Planner

Search our weather history database for the weather conditions in past years. The results will help you decide how hot, cold, wet, or windy it might be!

Date:

Astronomy

Jan. 28, 2014 Rise Set
Actual Time 7:49 AM CST 5:33 PM CST
Civil Twilight 7:18 AM CST 6:04 PM CST
Nautical Twilight 6:44 AM CST 6:39 PM CST
Astronomical Twilight 6:10 AM CST 7:13 PM CST
Moon 5:34 AM CST (1/28) 3:23 PM CST (1/28)
Length of Visible Light 10h 45m
Length of Day
9h 43m
Waning Crescent, 7% of the Moon is Illuminated
Jan 28
Waning Crescent
Jan 30
New
Feb 6
First Quarter
Feb 14
Full
Feb 22
Last Quarter

Hourly Weather History & Observations

Time (CST) Temp. Windchill Dew Point Humidity Pressure Visibility Wind Dir Wind Speed Gust Speed Precip Events Conditions
12:05 AM -7.6 °F -20.6 °F -11.2 °F 84% 30.34 in 10.0 mi WNW 5.8 mph - N/A   Clear
12:25 AM -7.6 °F -22.1 °F -13.0 °F 77% 30.33 in 10.0 mi WNW 6.9 mph - N/A   Clear
12:45 AM -7.6 °F -24.6 °F -11.2 °F 84% 30.33 in 10.0 mi West 9.2 mph - N/A   Clear
1:05 AM -7.6 °F -24.6 °F - N/A% 30.33 in 10.0 mi West 9.2 mph - N/A   Clear
1:25 AM -7.6 °F -23.4 °F -11.2 °F 84% 30.33 in 10.0 mi West 8.1 mph - N/A   Clear
1:45 AM -7.6 °F -23.4 °F - N/A% 30.32 in 10.0 mi West 8.1 mph - N/A   Clear
2:05 AM -7.6 °F -23.4 °F -11.2 °F 84% 30.32 in 10.0 mi West 8.1 mph - N/A   Clear
2:25 AM -7.6 °F -23.4 °F -11.2 °F 84% 30.32 in 10.0 mi West 8.1 mph - N/A   Clear
2:45 AM -7.6 °F -25.7 °F -11.2 °F 84% 30.32 in 10.0 mi West 10.4 mph - N/A   Clear
3:05 AM -5.8 °F -24.4 °F -11.2 °F 77% 30.32 in 10.0 mi West 11.5 mph - N/A   Clear
3:25 AM -5.8 °F -24.4 °F -11.2 °F 77% 30.31 in 10.0 mi West 11.5 mph - N/A   Clear
3:45 AM -5.8 °F -25.2 °F - N/A% 30.31 in 10.0 mi West 12.7 mph 17.3 mph N/A   Clear
4:05 AM -5.8 °F -24.4 °F - N/A% 30.31 in 10.0 mi WNW 11.5 mph - N/A   Clear
4:25 AM -7.6 °F -26.6 °F -11.2 °F 84% 30.32 in 10.0 mi WNW 11.5 mph - N/A   Clear
4:45 AM -7.6 °F -25.7 °F -13.0 °F 77% 30.32 in 10.0 mi WNW 10.4 mph - N/A   Clear
5:05 AM -7.6 °F -25.7 °F -13.0 °F 77% 30.32 in 10.0 mi WNW 10.4 mph - N/A   Clear
5:25 AM -7.6 °F -23.4 °F -13.0 °F 77% 30.32 in 10.0 mi West 8.1 mph - N/A   Clear
5:45 AM -9.4 °F -26.8 °F -13.0 °F 84% 30.31 in 10.0 mi WNW 9.2 mph - N/A   Clear
6:05 AM -9.4 °F -25.6 °F -13.0 °F 84% 30.31 in 10.0 mi WNW 8.1 mph - N/A   Partly Cloudy
6:25 AM -9.4 °F -24.3 °F -14.8 °F 77% 30.31 in 10.0 mi WNW 6.9 mph - N/A   Partly Cloudy
6:45 AM -9.4 °F -25.6 °F -14.8 °F 77% 30.30 in 10.0 mi WNW 8.1 mph - N/A   Mostly Cloudy
7:05 AM -9.4 °F -24.3 °F -14.8 °F 77% 30.30 in 10.0 mi WNW 6.9 mph - N/A   Partly Cloudy
7:25 AM -9.4 °F -22.7 °F -14.8 °F 77% 30.30 in 10.0 mi West 5.8 mph - N/A   Clear
7:45 AM -9.4 °F -24.3 °F -14.8 °F 77% 30.30 in 10.0 mi West 6.9 mph - N/A   Clear
8:05 AM -9.4 °F -26.8 °F -13.0 °F 84% 30.30 in 10.0 mi West 9.2 mph - N/A   Clear
8:25 AM -9.4 °F -26.8 °F -13.0 °F 84% 30.30 in 10.0 mi WNW 9.2 mph - N/A   Clear
8:45 AM -7.6 °F -24.6 °F -13.0 °F 77% 30.30 in 10.0 mi WNW 9.2 mph - N/A   Clear
9:05 AM -7.6 °F -27.5 °F -13.0 °F 77% 30.30 in 10.0 mi WNW 12.7 mph - N/A   Clear
9:25 AM -5.8 °F -25.2 °F - N/A% 30.29 in 10.0 mi WNW 12.7 mph - N/A   Clear
9:45 AM -4.0 °F -23.7 °F -11.2 °F 71% 30.29 in 10.0 mi WNW 13.8 mph - N/A   Clear
10:05 AM -4.0 °F -23.7 °F -9.4 °F 78% 30.29 in 10.0 mi WNW 13.8 mph - N/A   Clear
10:25 AM -4.0 °F -24.5 °F -9.4 °F 78% 30.29 in 10.0 mi WNW 15.0 mph - N/A   Clear
10:45 AM -2.2 °F -22.9 °F -9.4 °F 71% 30.28 in 10.0 mi WNW 16.1 mph - N/A   Clear
11:05 AM -2.2 °F -22.2 °F -9.4 °F 71% 30.28 in 10.0 mi WNW 15.0 mph - N/A   Clear
11:25 AM -0.4 °F -20.5 °F -9.4 °F 66% 30.28 in 10.0 mi WNW 16.1 mph - N/A   Clear
11:45 AM -0.4 °F -20.5 °F -9.4 °F 66% 30.27 in 10.0 mi WNW 16.1 mph - N/A   Clear
12:05 PM -0.4 °F -19.9 °F -7.6 °F 72% 30.26 in 10.0 mi NW 15.0 mph - N/A   Clear
12:25 PM -0.4 °F -19.2 °F -7.6 °F 72% 30.26 in 10.0 mi NW 13.8 mph - N/A   Clear
12:45 PM 1.4 °F -17.6 °F -7.6 °F 66% 30.25 in 10.0 mi WNW 15.0 mph 19.6 mph N/A   Clear
1:05 PM 1.4 °F -17.6 °F -7.6 °F 66% 30.24 in 10.0 mi WNW 15.0 mph - N/A   Clear
1:25 PM 1.4 °F -18.8 °F -7.6 °F 66% 30.23 in 10.0 mi WNW 17.3 mph - N/A   Clear
1:45 PM 1.4 °F -16.1 °F -7.6 °F 66% 30.22 in 10.0 mi WNW 12.7 mph 19.6 mph N/A   Clear
2:05 PM 1.4 °F -16.9 °F -7.6 °F 66% 30.22 in 10.0 mi WNW 13.8 mph 19.6 mph N/A   Clear
2:25 PM 3.2 °F -15.9 °F -5.8 °F 66% 30.21 in 10.0 mi West 16.1 mph - N/A   Clear
2:45 PM 3.2 °F -14.6 °F -5.8 °F 66% 30.20 in 10.0 mi West 13.8 mph 19.6 mph N/A   Clear
3:05 PM 5.0 °F -13.0 °F -4.0 °F 66% 30.20 in 10.0 mi West 15.0 mph 19.6 mph N/A   Clear
3:25 PM 5.0 °F -10.8 °F -5.8 °F 61% 30.19 in 10.0 mi WNW 11.5 mph 20.7 mph N/A   Clear
3:45 PM 5.0 °F -13.0 °F -5.8 °F 61% 30.19 in 10.0 mi WNW 15.0 mph 20.7 mph N/A   Clear
4:05 PM 5.0 °F -11.6 °F -5.8 °F 61% 30.19 in 10.0 mi WNW 12.7 mph - N/A   Clear
4:25 PM 5.0 °F -11.6 °F -5.8 °F 61% 30.19 in 10.0 mi WNW 12.7 mph - N/A   Clear
4:45 PM 5.0 °F -10.8 °F -4.0 °F 66% 30.18 in 10.0 mi WNW 11.5 mph - N/A   Clear
5:05 PM 5.0 °F -10.0 °F -5.8 °F 61% 30.18 in 10.0 mi WNW 10.4 mph - N/A   Clear
5:25 PM 5.0 °F -9.1 °F -7.6 °F 56% 30.17 in 10.0 mi WNW 9.2 mph - N/A   Clear
5:45 PM 3.2 °F -10.3 °F -7.6 °F 61% 30.17 in 10.0 mi WNW 8.1 mph - N/A   Clear
6:05 PM 3.2 °F -9.1 °F -7.6 °F 61% 30.16 in 10.0 mi WNW 6.9 mph - N/A   Clear
6:25 PM 1.4 °F -9.9 °F -5.8 °F 72% 30.14 in 10.0 mi West 5.8 mph - N/A   Clear
6:45 PM 1.4 °F -8.3 °F -5.8 °F 72% 30.14 in 10.0 mi West 4.6 mph - N/A   Clear
7:05 PM 1.4 °F -9.9 °F -5.8 °F 72% 30.13 in 10.0 mi West 5.8 mph - N/A   Clear
7:25 PM 1.4 °F -9.9 °F -7.6 °F 66% 30.12 in 10.0 mi West 5.8 mph - N/A   Clear
7:45 PM 1.4 °F -6.2 °F -7.6 °F 66% 30.12 in 10.0 mi SW 3.5 mph - N/A   Clear
8:05 PM -0.4 °F -10.4 °F -7.6 °F 72% 30.11 in 10.0 mi SW 4.6 mph - N/A   Clear
8:25 PM -0.4 °F -8.3 °F -5.8 °F 78% 30.11 in 10.0 mi SW 3.5 mph - N/A   Clear
8:45 PM -0.4 °F -10.4 °F -5.8 °F 78% 30.10 in 10.0 mi SW 4.6 mph - N/A   Clear
9:05 PM -0.4 °F -13.4 °F -7.6 °F 72% 30.10 in 10.0 mi SW 6.9 mph - N/A   Clear
9:25 PM -0.4 °F -13.4 °F -7.6 °F 72% 30.10 in 10.0 mi SW 6.9 mph - N/A   Clear
9:45 PM -0.4 °F -14.7 °F -7.6 °F 72% 30.08 in 10.0 mi WSW 8.1 mph - N/A   Clear
10:05 PM -0.4 °F -14.7 °F -7.6 °F 72% 30.08 in 10.0 mi WSW 8.1 mph - N/A   Clear
10:25 PM -0.4 °F -13.4 °F -7.6 °F 72% 30.08 in 10.0 mi SW 6.9 mph - N/A   Clear
10:45 PM -0.4 °F -15.7 °F -7.6 °F 72% 30.07 in 10.0 mi WSW 9.2 mph - N/A   Clear
11:05 PM -0.4 °F -14.7 °F -7.6 °F 72% 30.06 in 10.0 mi SW 8.1 mph - N/A   Clear
11:25 PM -0.4 °F -15.7 °F -7.6 °F 72% 30.06 in 10.0 mi SW 9.2 mph - N/A   Clear
11:45 PM -0.4 °F -16.7 °F -7.6 °F 72% 30.06 in 10.0 mi SW 10.4 mph - N/A   Clear